Hobbs, NM

7:08 AM MDT on August 20, 2017 (GMT -0600)
Lea County Regional

Weather History for KHOB - November, 2012

Change the Weather History Date:

Sunday, November 11, 2012

  Actual Average Record
Temperature  
Mean Temperature 45 °F -  
Max Temperature 55 °F 62 °F 82 °F (1956)
Min Temperature 35 °F 39 °F 17 °F (1950)
Degree Days  
Heating Degree Days 20    
Moisture  
Dew Point 8 °F    
Average Humidity 25    
Maximum Humidity 50    
Minimum Humidity 10    
Precipitation  
Precipitation 0.00 in - - ()
Sea Level Pressure  
Sea Level Pressure 30.11 in    
Wind  
Wind Speed 11 mph (NW)    
Max Wind Speed 25 mph    
Max Gust Speed 30 mph    
Visibility 10 miles    
Events      
Averages and records for this station are not official NWS values.
T = Trace of Precipitation, MM = Missing Value Source: NWS Daily Summary

Daily Weather History Graph

Daily Weather History Graph

Search for Another Location

Airport or City:

Trip Planner

Search our weather history database for the weather conditions in past years. The results will help you decide how hot, cold, wet, or windy it might be!

Date:

Astronomy

Nov. 11, 2012 Rise Set
Actual Time 6:19 AM MST 4:53 PM MST
Civil Twilight 5:53 AM MST 5:19 PM MST
Nautical Twilight 5:24 AM MST 5:49 PM MST
Astronomical Twilight 4:55 AM MST 6:18 PM MST
Moon 3:43 AM MST (11/11) 3:13 PM MST (11/11)
Length of Visible Light 11h 26m
Length of Day
10h 34m
Waning Crescent, 7% of the Moon is Illuminated
Nov 11
Waning Crescent
Nov 13
New
Nov 20
First Quarter
Nov 28
Full
Dec 6
Last Quarter

Hourly Weather History & Observations

Time (MST) Temp. Windchill Dew Point Humidity Pressure Visibility Wind Dir Wind Speed Gust Speed Precip Events Conditions
12:15 AM 51.8 °F - 32.0 °F 47% 29.86 in 10.0 mi West 6.9 mph - N/A   Partly Cloudy
12:35 AM 50.0 °F - 32.0 °F 50% 29.86 in 10.0 mi WNW 11.5 mph - N/A   Clear
12:55 AM 50.0 °F - 26.6 °F 40% 29.88 in 10.0 mi NNW 15.0 mph - N/A   Clear
1:15 AM 48.2 °F - 24.8 °F 40% 29.89 in 10.0 mi NNW 19.6 mph 23.0 mph N/A   Clear
1:35 AM 46.4 °F 39.5 °F 19.4 °F 34% 29.88 in 10.0 mi NW 17.3 mph 24.2 mph N/A   Clear
1:55 AM 46.4 °F 39.8 °F 19.4 °F 34% 29.90 in 10.0 mi NW 16.1 mph - N/A   Clear
2:15 AM 44.6 °F 38.1 °F 19.4 °F 37% 29.90 in 10.0 mi NW 13.8 mph - N/A   Clear
2:35 AM 44.6 °F 38.1 °F 19.4 °F 37% 29.90 in 10.0 mi NNW 13.8 mph - N/A   Clear
2:55 AM 42.8 °F 36.6 °F 19.4 °F 39% 29.90 in 10.0 mi NNW 11.5 mph - N/A   Clear
3:15 AM 42.8 °F 36.6 °F 17.6 °F 36% 29.91 in 10.0 mi NNW 11.5 mph - N/A   Clear
3:35 AM 41.0 °F 34.7 °F 17.6 °F 39% 29.92 in 10.0 mi NW 10.4 mph - N/A   Clear
3:55 AM 41.0 °F 35.2 °F 19.4 °F 42% 29.93 in 10.0 mi NW 9.2 mph - N/A   Clear
5:50 AM 35.6 °F - 17.6 °F 48% 29.99 in 10.0 mi Calm Calm - N/A   Clear
6:50 AM 39.2 °F - 19.4 °F 45% 30.02 in 10.0 mi Calm Calm - N/A   Partly Cloudy
7:50 AM 46.4 °F 39.5 °F 19.4 °F 34% 30.05 in 10.0 mi West 17.3 mph 23.0 mph N/A   Partly Cloudy
8:50 AM 50.0 °F - 15.8 °F 26% 30.07 in 10.0 mi West 25.3 mph 29.9 mph N/A   Partly Cloudy
9:50 AM 50.0 °F - 14.0 °F 24% 30.10 in 10.0 mi West 16.1 mph 23.0 mph N/A   Clear
11:50 AM 53.6 °F - 6.8 °F 15% 30.09 in 10.0 mi West 20.7 mph 28.8 mph N/A   Clear
12:50 PM 53.6 °F - 6.8 °F 15% 30.08 in 10.0 mi West 20.7 mph 26.5 mph N/A   Clear
1:50 PM 55.4 °F - 6.8 °F 14% 30.08 in 10.0 mi West 16.1 mph 24.2 mph N/A   Clear
2:50 PM 55.4 °F - -0.4 °F 10% 30.09 in 10.0 mi West 18.4 mph 25.3 mph N/A   Clear
3:50 PM 51.8 °F - -0.4 °F 12% 30.13 in 10.0 mi WNW 19.6 mph 25.3 mph N/A   Clear
4:50 PM 48.2 °F - -0.4 °F 13% 30.15 in 10.0 mi WNW 17.3 mph - N/A   Clear
5:15 PM 46.4 °F 41.5 °F -0.4 °F 14% 30.17 in 10.0 mi WNW 10.4 mph - N/A   Clear
5:35 PM 44.6 °F 40.7 °F -0.4 °F 15% 30.19 in 10.0 mi WNW 6.9 mph - N/A   Clear
5:45 PM 44.6 °F 40.7 °F -0.4 °F 15% 30.18 in 10.0 mi WNW 6.9 mph - N/A   Clear
5:55 PM 41.0 °F - -0.4 °F 18% 30.20 in 10.0 mi Calm Calm - N/A   Clear
6:15 PM 39.2 °F - -0.4 °F 19% 30.21 in 10.0 mi Calm Calm - N/A   Clear
6:35 PM 39.2 °F - -0.4 °F 19% 30.21 in 10.0 mi Calm Calm - N/A   Clear
6:55 PM 39.2 °F - -0.4 °F 19% 30.23 in 10.0 mi Calm Calm - N/A   Clear
7:15 PM 41.0 °F - -0.4 °F 18% 30.24 in 10.0 mi Calm Calm - N/A   Clear
7:35 PM 39.2 °F - -0.4 °F 19% 30.25 in 10.0 mi Calm Calm - N/A   Clear
7:55 PM 37.4 °F - -0.4 °F 20% 30.25 in 10.0 mi Calm Calm - N/A   Clear
8:15 PM 37.4 °F - -2.2 °F 19% 30.26 in 10.0 mi Calm Calm - N/A   Clear
8:35 PM 39.2 °F 32.0 °F -0.4 °F 19% 30.26 in 10.0 mi NW 11.5 mph - N/A   Clear
8:55 PM 41.0 °F 34.3 °F -2.2 °F 16% 30.28 in 10.0 mi NW 11.5 mph - N/A   Clear
9:15 PM 41.0 °F 33.5 °F -0.4 °F 18% 30.29 in 10.0 mi NW 13.8 mph - N/A   Clear
9:35 PM 41.0 °F 33.5 °F -0.4 °F 18% 30.29 in 10.0 mi NW 13.8 mph - N/A   Clear
9:55 PM 39.2 °F 31.6 °F -0.4 °F 19% 30.30 in 10.0 mi NW 12.7 mph - N/A   Clear
10:15 PM 39.2 °F 30.2 °F -0.4 °F 19% 30.30 in 10.0 mi NW 17.3 mph - N/A   Clear
10:35 PM 39.2 °F 30.2 °F -0.4 °F 19% 30.31 in 10.0 mi NW 17.3 mph - N/A   Clear
10:55 PM 37.4 °F 28.9 °F -0.4 °F 20% 30.32 in 10.0 mi NW 13.8 mph - N/A   Clear
11:15 PM 37.4 °F 28.5 °F -0.4 °F 20% 30.32 in 10.0 mi NW 15.0 mph - N/A   Clear
11:55 PM 35.6 °F 27.5 °F -0.4 °F 22% 30.33 in 10.0 mi NW 11.5 mph - N/A   Clear